AAL1252 KCLT-KDCA

Flight info

Callsign AAL1252
Flight time N/A
Altitude 31000
Route KILNS5 AUDII WAVES CAPSS4
Aircraft B738/M-VGDW/C

Departure

Time 2026-05-06 18:55
Airport Charlotte Douglas International Airport (KCLT)

Arrival

Time N/A
Airport Ronald Reagan Washington National Airport (KDCA)
Time Latitude Longitude Altitude Speed Heading
2026-05-06 18:20 35.21987 -80.94656 727 ft 0 kts 355°
2026-05-06 18:46 35.21981 -80.94656 726 ft 1 kts 26°
2026-05-06 18:47 35.21969 -80.94666 726 ft 2 kts 24°
2026-05-06 18:47 35.21955 -80.94672 726 ft 2 kts 24°
2026-05-06 18:47 35.21941 -80.94680 726 ft 2 kts 24°
2026-05-06 18:47 35.21928 -80.94687 725 ft 2 kts 24°
2026-05-06 18:48 35.21914 -80.94694 725 ft 2 kts 24°
2026-05-06 18:48 35.21900 -80.94702 725 ft 2 kts 24°
2026-05-06 18:48 35.21886 -80.94709 725 ft 2 kts 24°
2026-05-06 18:48 35.21873 -80.94717 724 ft 2 kts 24°
2026-05-06 18:49 35.21866 -80.94720 724 ft 0 kts
2026-05-06 18:49 35.21862 -80.94721 724 ft 0 kts 359°
2026-05-06 18:52 35.21890 -80.94730 725 ft 7 kts 329°
2026-05-06 18:52 35.21901 -80.94791 725 ft 16 kts 252°
2026-05-06 18:52 35.21873 -80.94993 724 ft 27 kts 291°
2026-05-06 18:52 35.22080 -80.95062 728 ft 38 kts 355°
2026-05-06 18:53 35.22330 -80.95080 735 ft 33 kts 354°
2026-05-06 18:53 35.22545 -80.95101 737 ft 28 kts 355°
2026-05-06 18:53 35.22721 -80.95142 740 ft 23 kts 305°
2026-05-06 18:53 35.22698 -80.95297 740 ft 19 kts 202°
2026-05-06 18:54 35.22486 -80.95289 739 ft 61 kts 176°
2026-05-06 18:54 35.21802 -80.95235 724 ft 133 kts 176°
2026-05-06 18:54 35.20678 -80.95158 758 ft 183 kts 175°
2026-05-06 18:54 35.19333 -80.94987 1300 ft 202 kts 175°
2026-05-06 18:55 35.17898 -80.94797 1995 ft 217 kts 175°
2026-05-06 18:55 35.16356 -80.94571 2690 ft 228 kts 176°
2026-05-06 18:55 35.14760 -80.94066 3087 ft 254 kts 154°
2026-05-06 18:55 35.13469 -80.92493 3660 ft 277 kts 121°
2026-05-06 18:56 35.13032 -80.90162 4290 ft 295 kts 88°
2026-05-06 18:56 35.13656 -80.87833 5078 ft 297 kts 56°
2026-05-06 18:56 35.14877 -80.85779 5855 ft 299 kts 50°
2026-05-06 18:56 35.16117 -80.83727 6500 ft 307 kts 52°
2026-05-06 18:57 35.17276 -80.81514 7239 ft 311 kts 56°
2026-05-06 18:57 35.18357 -80.79244 7925 ft 315 kts 57°
2026-05-06 18:57 35.19460 -80.76893 8543 ft 322 kts 56°
2026-05-06 18:57 35.20585 -80.74519 9218 ft 325 kts 56°
2026-05-06 18:58 35.21741 -80.72123 9882 ft 329 kts 54°
2026-05-06 18:58 35.22945 -80.69692 10284 ft 343 kts 53°
2026-05-06 18:58 35.24212 -80.67152 10506 ft 362 kts 54°
2026-05-06 18:58 35.25550 -80.64427 10662 ft 383 kts 54°
2026-05-06 18:59 35.26924 -80.61591 11181 ft 389 kts 54°
2026-05-06 18:59 35.28301 -80.58721 11687 ft 397 kts 54°
2026-05-06 18:59 35.29707 -80.55798 12204 ft 401 kts 54°
2026-05-06 18:59 35.31126 -80.52844 12713 ft 408 kts 54°
2026-05-06 19:00 35.32572 -80.49819 13201 ft 413 kts 56°
2026-05-06 19:00 35.33851 -80.46629 13736 ft 421 kts 63°
2026-05-06 19:00 35.34904 -80.43271 14265 ft 426 kts 67°
2026-05-06 19:00 35.35858 -80.39829 14895 ft 427 kts 68°
2026-05-06 19:01 35.36792 -80.36394 15624 ft 426 kts 67°
2026-05-06 19:01 35.37763 -80.32948 16062 ft 429 kts 67°
2026-05-06 19:01 35.38762 -80.29520 16518 ft 433 kts 66°
2026-05-06 19:01 35.39805 -80.26016 16976 ft 438 kts 66°
2026-05-06 19:02 35.40853 -80.22504 17587 ft 436 kts 66°
2026-05-06 19:02 35.41902 -80.19022 17919 ft 442 kts 66°
2026-05-06 19:02 35.42957 -80.15482 18402 ft 443 kts 66°
2026-05-06 19:02 35.44028 -80.11912 18924 ft 443 kts 65°
2026-05-06 19:03 35.45118 -80.08369 19345 ft 445 kts 65°
2026-05-06 19:03 35.46228 -80.04861 19853 ft 444 kts 65°
2026-05-06 19:03 35.47355 -80.01348 20338 ft 445 kts 65°
2026-05-06 19:03 35.48489 -79.97796 20668 ft 450 kts 65°
2026-05-06 19:04 35.49619 -79.94212 21145 ft 450 kts 65°
2026-05-06 19:04 35.50751 -79.90600 21431 ft 454 kts 65°
2026-05-06 19:04 35.51897 -79.86975 21665 ft 460 kts 66°
2026-05-06 19:04 35.53043 -79.83302 22109 ft 460 kts 66°
2026-05-06 19:05 35.54192 -79.79630 22468 ft 462 kts 65°
2026-05-06 19:05 35.55352 -79.75972 22871 ft 462 kts 66°
2026-05-06 19:05 35.56499 -79.72337 23218 ft 464 kts 66°
2026-05-06 19:05 35.57673 -79.68577 23487 ft 469 kts 66°
2026-05-06 19:06 35.58837 -79.64835 23734 ft 473 kts 66°
2026-05-06 19:06 35.60009 -79.61069 24097 ft 474 kts 66°
2026-05-06 19:06 35.61200 -79.57250 24314 ft 479 kts 66°
2026-05-06 19:06 35.62382 -79.53447 24683 ft 479 kts 66°
2026-05-06 19:07 35.63572 -79.49612 24916 ft 483 kts 66°
2026-05-06 19:07 35.64774 -79.45722 25241 ft 485 kts 66°
2026-05-06 19:07 35.65969 -79.41866 25525 ft 487 kts 66°
2026-05-06 19:07 35.67173 -79.37962 25804 ft 489 kts 66°
2026-05-06 19:08 35.68363 -79.34085 26154 ft 489 kts 67°
2026-05-06 19:08 35.69641 -79.30190 26354 ft 491 kts 63°
2026-05-06 19:08 35.71349 -79.26548 26550 ft 487 kts 48°
2026-05-06 19:08 35.73658 -79.23537 26847 ft 480 kts 35°
2026-05-06 19:09 35.76251 -79.21076 27377 ft 470 kts 30°
2026-05-06 19:09 35.78944 -79.18767 27692 ft 470 kts 28°
2026-05-06 19:09 35.81622 -79.16489 27859 ft 473 kts 29°
2026-05-06 19:09 35.84323 -79.14166 28144 ft 474 kts 29°
2026-05-06 19:10 35.87024 -79.11800 28406 ft 476 kts 30°
2026-05-06 19:10 35.89739 -79.09380 28574 ft 479 kts 31°
2026-05-06 19:10 35.92425 -79.06953 28718 ft 483 kts 31°
2026-05-06 19:10 35.95135 -79.04481 28887 ft 486 kts 31°
2026-05-06 19:11 35.97847 -79.02000 29036 ft 489 kts 30°
2026-05-06 19:11 36.00605 -78.99484 29263 ft 491 kts 31°
2026-05-06 19:11 36.03373 -78.96953 29439 ft 494 kts 31°
2026-05-06 19:11 36.06119 -78.94425 29587 ft 497 kts 31°
2026-05-06 19:12 36.08878 -78.91852 29796 ft 499 kts 31°
2026-05-06 19:12 36.11635 -78.89236 30094 ft 499 kts 31°
2026-05-06 19:12 36.14399 -78.86558 30343 ft 500 kts 32°
2026-05-06 19:12 36.17115 -78.83917 30610 ft 500 kts 31°
2026-05-06 19:13 36.19875 -78.81249 30935 ft 496 kts 31°
2026-05-06 19:13 36.25319 -78.75921 30965 ft 499 kts 32°
2026-05-06 19:14 36.30754 -78.70541 30961 ft 500 kts 32°
2026-05-06 19:14 36.36250 -78.65196 30959 ft 501 kts 31°
2026-05-06 19:15 36.41783 -78.59917 30962 ft 503 kts 30°
2026-05-06 19:15 36.47346 -78.54537 30955 ft 505 kts 32°
2026-05-06 19:16 36.52882 -78.49144 30946 ft 507 kts 31°
2026-05-06 19:16 36.58443 -78.43736 30938 ft 508 kts 31°
2026-05-06 19:17 36.64046 -78.38236 30944 ft 509 kts 32°
2026-05-06 19:17 36.69598 -78.32756 30938 ft 510 kts 32°
2026-05-06 19:18 36.75200 -78.27291 30951 ft 510 kts 31°
2026-05-06 19:18 36.80795 -78.21793 30952 ft 512 kts 32°
2026-05-06 19:19 36.86351 -78.16267 30947 ft 512 kts 32°
2026-05-06 19:19 36.91990 -78.10760 30937 ft 512 kts 31°
2026-05-06 19:20 36.97615 -78.05304 30936 ft 513 kts 31°
2026-05-06 19:20 37.03251 -77.99778 30934 ft 513 kts 32°
2026-05-06 19:21 37.08857 -77.94229 30938 ft 514 kts 32°
2026-05-06 19:21 37.14446 -77.88634 30929 ft 516 kts 32°
2026-05-06 19:22 37.19466 -77.83539 30919 ft 516 kts 32°
2026-05-06 19:22 37.22247 -77.80755 30717 ft 515 kts 32°
2026-05-06 19:22 37.25068 -77.77931 30404 ft 515 kts 32°
2026-05-06 19:22 37.27879 -77.75123 30091 ft 514 kts 32°
2026-05-06 19:23 37.30680 -77.72343 29790 ft 512 kts 32°
2026-05-06 19:23 37.33472 -77.69574 29192 ft 504 kts 32°
2026-05-06 19:23 37.36192 -77.66883 28310 ft 499 kts 31°
2026-05-06 19:23 37.38917 -77.64195 27517 ft 492 kts 32°
2026-05-06 19:24 37.41558 -77.61572 26817 ft 483 kts 32°
2026-05-06 19:24 37.44180 -77.58962 25938 ft 478 kts 31°
2026-05-06 19:24 37.46771 -77.56401 24920 ft 477 kts 31°
2026-05-06 19:24 37.49355 -77.53846 24132 ft 470 kts 31°
2026-05-06 19:25 37.51874 -77.51339 23411 ft 462 kts 31°
2026-05-06 19:25 37.54362 -77.48827 22696 ft 454 kts 31°
2026-05-06 19:25 37.56838 -77.46491 22060 ft 438 kts 24°
2026-05-06 19:25 37.59448 -77.44810 21919 ft 408 kts 11°
2026-05-06 19:26 37.62085 -77.43754 21907 ft 395 kts
2026-05-06 19:26 37.64779 -77.42932 21905 ft 393 kts
2026-05-06 19:26 37.67438 -77.42170 21910 ft 392 kts
2026-05-06 19:26 37.70075 -77.41408 21905 ft 393 kts
2026-05-06 19:27 37.72748 -77.40596 21909 ft 393 kts
2026-05-06 19:27 37.75423 -77.39738 21906 ft 394 kts
2026-05-06 19:27 37.78046 -77.38855 21901 ft 394 kts
2026-05-06 19:27 37.80705 -77.37971 21716 ft 399 kts
2026-05-06 19:28 37.83461 -77.37084 21195 ft 409 kts
2026-05-06 19:28 37.86172 -77.36212 20584 ft 405 kts
2026-05-06 19:28 37.88871 -77.35349 20008 ft 395 kts
2026-05-06 19:28 37.91491 -77.34509 19645 ft 380 kts
2026-05-06 19:29 37.94037 -77.33692 18994 ft 374 kts
2026-05-06 19:29 37.96542 -77.32917 18327 ft 374 kts
2026-05-06 19:29 37.99072 -77.32153 17707 ft 374 kts
2026-05-06 19:29 38.01591 -77.31379 17191 ft 371 kts
2026-05-06 19:30 38.04098 -77.30596 16655 ft 369 kts
2026-05-06 19:30 38.06607 -77.29823 16124 ft 366 kts
2026-05-06 19:30 38.09058 -77.29046 15761 ft 360 kts
2026-05-06 19:30 38.11461 -77.28296 15305 ft 356 kts
2026-05-06 19:31 38.13531 -77.27666 14920 ft 353 kts
2026-05-06 19:31 38.15948 -77.26932 14197 ft 358 kts
2026-05-06 19:31 38.20735 -77.25442 13189 ft 354 kts
2026-05-06 19:32 38.23103 -77.24652 13029 ft 346 kts
2026-05-06 19:32 38.25427 -77.23819 13018 ft 350 kts
2026-05-06 19:32 38.27790 -77.22950 12994 ft 355 kts
2026-05-06 19:32 38.30165 -77.22065 12646 ft 355 kts 10°
2026-05-06 19:33 38.32538 -77.21175 12061 ft 356 kts 10°
2026-05-06 19:33 38.34913 -77.20275 11486 ft 356 kts 10°
2026-05-06 19:33 38.37275 -77.19380 11052 ft 351 kts 11°
2026-05-06 19:33 38.39560 -77.18496 11015 ft 342 kts 11°
2026-05-06 19:34 38.41866 -77.17596 11012 ft 347 kts 11°
2026-05-06 19:34 38.44191 -77.16686 11012 ft 351 kts 11°
2026-05-06 19:34 38.46543 -77.15775 11006 ft 348 kts 11°
2026-05-06 19:34 38.48850 -77.14889 10974 ft 346 kts 11°
2026-05-06 19:35 38.51136 -77.14012 10618 ft 342 kts 11°
2026-05-06 19:35 38.53392 -77.13131 10315 ft 335 kts 11°
2026-05-06 19:35 38.55572 -77.12257 10201 ft 322 kts 12°
2026-05-06 19:35 38.57664 -77.11400 10042 ft 311 kts 11°
2026-05-06 19:36 38.59693 -77.10578 10002 ft 298 kts 10°
2026-05-06 19:36 38.61662 -77.09813 9998 ft 295 kts 10°
2026-05-06 19:36 38.63623 -77.09084 9896 ft 288 kts
2026-05-06 19:36 38.65542 -77.08382 9523 ft 289 kts
2026-05-06 19:37 38.67465 -77.07671 9097 ft 291 kts 10°
2026-05-06 19:37 38.69404 -77.07022 8715 ft 288 kts
2026-05-06 19:37 38.71394 -77.06681 8345 ft 282 kts 356°
2026-05-06 19:37 38.73325 -77.06564 7991 ft 279 kts 354°
2026-05-06 19:38 38.75253 -77.06469 7644 ft 276 kts 352°
2026-05-06 19:38 38.77120 -77.06729 7286 ft 264 kts 334°
2026-05-06 19:38 38.78691 -77.07759 6988 ft 249 kts 318°
2026-05-06 19:38 38.80068 -77.09072 6651 ft 244 kts 316°
2026-05-06 19:39 38.81440 -77.10324 6353 ft 237 kts 319°
2026-05-06 19:39 38.82817 -77.11455 6048 ft 231 kts 320°
2026-05-06 19:39 38.84059 -77.12659 5698 ft 223 kts 310°
2026-05-06 19:39 38.85132 -77.14048 5445 ft 213 kts 307°
2026-05-06 19:40 38.86139 -77.15401 5087 ft 212 kts 308°
2026-05-06 19:40 38.87185 -77.16736 4670 ft 214 kts 309°
2026-05-06 19:40 38.88264 -77.18059 4276 ft 214 kts 309°
2026-05-06 19:40 38.89317 -77.19344 4118 ft 207 kts 309°
2026-05-06 19:41 38.90372 -77.20648 3700 ft 212 kts 309°
2026-05-06 19:41 38.91436 -77.21976 3346 ft 214 kts 309°
2026-05-06 19:41 38.92507 -77.23312 3026 ft 216 kts 309°
2026-05-06 19:41 38.93579 -77.24629 2989 ft 213 kts 310°
2026-05-06 19:42 38.94760 -77.25833 2966 ft 223 kts 330°
2026-05-06 19:42 38.96346 -77.26126 2974 ft 241 kts
2026-05-06 19:42 38.97861 -77.25203 2983 ft 245 kts 35°
2026-05-06 19:42 38.99145 -77.23748 2973 ft 248 kts 42°
2026-05-06 19:43 39.00326 -77.22125 2889 ft 244 kts 60°
2026-05-06 19:43 39.00782 -77.20138 2814 ft 225 kts 99°
2026-05-06 19:43 39.00297 -77.18402 2733 ft 197 kts 140°
2026-05-06 19:43 38.99284 -77.17338 2767 ft 182 kts 157°
2026-05-06 19:44 38.98182 -77.16669 2746 ft 165 kts 166°
2026-05-06 19:44 38.97174 -77.16076 2682 ft 160 kts 158°
2026-05-06 19:44 38.96309 -77.15181 2615 ft 159 kts 143°
2026-05-06 19:44 38.95526 -77.14187 2442 ft 157 kts 147°
2026-05-06 19:45 38.94711 -77.13291 2257 ft 152 kts 150°
2026-05-06 19:45 38.93911 -77.12437 2107 ft 143 kts 148°
2026-05-06 19:45 38.93169 -77.11633 1935 ft 139 kts 154°
2026-05-06 19:45 38.92319 -77.11114 1749 ft 128 kts 172°
2026-05-06 19:46 38.91490 -77.10675 1583 ft 137 kts 155°
2026-05-06 19:46 38.90797 -77.09830 1840 ft 142 kts 133°
2026-05-06 19:46 38.90414 -77.08570 2115 ft 162 kts 104°
2026-05-06 19:46 38.90214 -77.07162 2462 ft 160 kts 121°
2026-05-06 19:47 38.89537 -77.06121 2703 ft 149 kts 150°
2026-05-06 19:47 38.88827 -77.05100 2047 ft 177 kts 127°
2026-05-06 19:47 38.88022 -77.04028 1378 ft 161 kts 174°
2026-05-06 19:47 38.86945 -77.03883 862 ft 152 kts 183°
2026-05-06 19:48 38.85928 -77.03725 873 ft 133 kts 161°
2026-05-06 19:48 38.85295 -77.02898 994 ft 153 kts 116°